TimeEDT,TemperatureF,Dew PointF,Humidity,Sea Level PressureIn,VisibilityMPH,Wind Direction,Wind SpeedMPH,Gust SpeedMPH,PrecipitationIn,Events,Conditions,WindDirDegrees,DateUTC
12:56 AM,81.0,75.9,85,29.93,10.0,SSW,5.8,-,N/A,,Scattered Clouds,200,2013-09-02 04:56:00
1:56 AM,81.0,75.0,82,29.92,10.0,SW,9.2,-,N/A,,Clear,230,2013-09-02 05:56:00
2:56 AM,79.0,73.0,82,29.91,10.0,SW,8.1,-,N/A,,Clear,230,2013-09-02 06:56:00
3:56 AM,78.1,73.0,84,29.91,10.0,WSW,6.9,-,N/A,,Clear,250,2013-09-02 07:56:00
4:56 AM,77.0,73.0,88,29.91,10.0,SW,6.9,-,N/A,,Clear,230,2013-09-02 08:56:00
5:56 AM,77.0,72.0,84,29.91,10.0,WSW,9.2,-,N/A,,Clear,240,2013-09-02 09:56:00
6:56 AM,77.0,72.0,84,29.92,10.0,WSW,6.9,-,N/A,,Clear,250,2013-09-02 10:56:00
7:56 AM,78.1,73.0,84,29.94,10.0,WSW,8.1,-,N/A,,Clear,250,2013-09-02 11:56:00
8:56 AM,81.0,73.9,79,29.95,10.0,West,9.2,-,N/A,,Clear,260,2013-09-02 12:56:00
9:56 AM,84.0,73.9,72,29.96,10.0,West,11.5,-,N/A,,Clear,260,2013-09-02 13:56:00
10:56 AM,86.0,73.9,67,29.97,10.0,West,9.2,-,N/A,,Partly Cloudy,260,2013-09-02 14:56:00
11:56 AM,88.0,73.0,61,29.96,10.0,West,10.4,-,N/A,,Partly Cloudy,270,2013-09-02 15:56:00
12:56 PM,90.0,73.9,59,29.95,10.0,West,9.2,-,N/A,,Scattered Clouds,280,2013-09-02 16:56:00
1:56 PM,91.0,73.9,57,29.92,10.0,NW,6.9,-,N/A,,Mostly Cloudy,310,2013-09-02 17:56:00
2:56 PM,90.0,73.0,57,29.90,10.0,West,5.8,-,N/A,,Mostly Cloudy,280,2013-09-02 18:56:00
3:56 PM,93.0,73.0,52,29.87,10.0,SSW,6.9,-,N/A,,Scattered Clouds,210,2013-09-02 19:56:00
4:56 PM,91.0,71.1,52,29.86,10.0,WNW,4.6,-,N/A,,Partly Cloudy,290,2013-09-02 20:56:00
5:56 PM,90.0,73.0,57,29.86,10.0,WSW,6.9,-,N/A,,Clear,250,2013-09-02 21:56:00
6:17 PM,88.0,73.0,61,29.87,10.0,West,8.1,-,N/A,Thunderstorm,Thunderstorm,260,2013-09-02 22:17:00
6:56 PM,84.9,71.1,63,29.86,10.0,Calm,Calm,-,N/A,Thunderstorm,Thunderstorm,0,2013-09-02 22:56:00
7:56 PM,78.1,71.1,79,29.90,10.0,South,5.8,-,N/A,Thunderstorm,Thunderstorm,190,2013-09-02 23:56:00
8:54 PM,75.2,69.8,83,29.90,2.5,SW,10.4,17.3,N/A,Thunderstorm,Unknown,220,2013-09-03 00:54:00
8:56 PM,75.9,70.0,82,29.90,5.0,SSW,6.9,-,N/A,Thunderstorm,Unknown,210,2013-09-03 00:56:00
9:56 PM,75.9,71.1,85,29.93,10.0,SSW,6.9,-,N/A,Thunderstorm,Thunderstorm,210,2013-09-03 01:56:00
10:05 PM,75.9,71.1,85,29.92,10.0,SSW,4.6,-,N/A,,Clear,200,2013-09-03 02:05:00
10:56 PM,77.0,71.1,82,29.93,10.0,SW,9.2,-,N/A,,Scattered Clouds,220,2013-09-03 02:56:00
11:56 PM,75.9,69.1,79,29.92,10.0,WSW,10.4,-,N/A,,Clear,250,2013-09-03 03:56:00